Location: Paderno d�Adda
(45.6667°N, 9.4333°E)
Time: 13:40:33
(UTC+00:00)

CZ-2C R/B - Pass Details

Date: 19 September 2020
Orbit: 391 x 588 km, 35.0° (Epoch: 30 October)

Event Time Altitude Azimuth Distance (km) Brightness Sun altitude
Rises 18:34:04 0° 239° (WSW) 2,474 5.4 -12.7°
Reaches altitude 10° 18:37:03 10° 214° (SW) 1,554 3.9 -13.2°
Maximum altitude 18:39:01 14° 180° (S) 1,288 3.0 -13.6°
Enters shadow 18:40:04 13° 159° (SSE) 1,349 3.0 -13.8°
